Location: Sternwarte ZA, Rosenfeld-Brittheim
(48.2889°N, 8.6789°E)
Time: 05:55:10
(UTC+02:00)

ISS - Pass Details

Date: 20 September 2020
Orbit: 419 x 420 km, 51.6° (Epoch: 21 September)

Event Time Altitude Azimuth Distance (km) Brightness Sun altitude
Rises 20:02:29 0° 220° (SW) 2,356 0.5 -6.8°
Reaches altitude 10° 20:04:42 10° 210° (SSW) 1,495 -0.7 -7.1°
Maximum altitude 20:07:44 33° 145° (SE) 735 -2.9 -7.6°
Drops below altitude 10° 20:10:48 10° 80° (E) 1,503 -1.5 -8.1°
Enters shadow 20:10:52 10° 79° (E) 1,527 -1.5 -8.1°
